• In Uzbekistan
  • List of Countries
  • For 7 days
  • Water Temperature
  • Satellite Maps
  • Weather Map
  • Weather Widgets
  • user-avatar
    Login

    Hourly Weather Trashigang

    Today, 25 June, Tuesday

    Time Temperature Precipitation Wind Pressure Humidity
    00:00 +19°C° 0 mm 0 mps 626 mmHg 95%
    01:00 +19°C° 0 mm 0 mps 626 mmHg 95%
    02:00 +19°C° 0 mm 0 mps 626 mmHg 95%
    03:00 +19°C° 0 mm 0 mps 625 mmHg 95%
    04:00 +19°C° 0 mm 0 mps 626 mmHg 95%
    05:00 +20°C° 0 mm 0 mps 626 mmHg 94%
    06:00 +20°C° 0 mm 0 mps 626 mmHg 94%
    07:00 +22°C° 0.1 mm 0 mps 627 mmHg 88%
    08:00 +25°C° 0.1 mm 1 mps 627 mmHg 82%
    09:00 +27°C° 0.1 mm 1 mps 628 mmHg 76%
    10:00 +27°C° 0.7 mm 1 mps 627 mmHg 79%
    11:00 +27°C° 0.7 mm 2 mps 627 mmHg 82%
    12:00 +25°C° 0 mm 2 mps 627 mmHg 88%
    13:00 +25°C° 1.3 mm 2 mps 626 mmHg 90%
    14:00 +25°C° 1.3 mm 1 mps 625 mmHg 91%
    15:00 +24°C° 1.3 mm 1 mps 625 mmHg 92%
    16:00 +24°C° 0.2 mm 1 mps 625 mmHg 93%
    17:00 +24°C° 0.2 mm 1 mps 625 mmHg 94%
    18:00 +24°C° 0 mm 1 mps 625 mmHg 95%
    19:00 +23°C° 0 mm 1 mps 625 mmHg 96%
    20:00 +20°C° 0 mm 0 mps 625 mmHg 97%
    21:00 +20°C° 0 mm 0 mps 626 mmHg 98%
    22:00 +20°C° 0 mm 0 mps 626 mmHg 97%
    23:00 +19°C° 0 mm 0 mps 626 mmHg 97%

    Tomorrow, 26 June, Wednesday

    Time Temperature Precipitation Wind Pressure Humidity
    00:00 +19°C° 0 mm 0 mps 625 mmHg 96%
    01:00 +19°C° 0.1 mm 0 mps 625 mmHg 96%
    02:00 +19°C° 0.1 mm 0 mps 625 mmHg 96%
    03:00 +21°C° 0.1 mm 1 mps 625 mmHg 96%
    04:00 +21°C° 0.7 mm 1 mps 625 mmHg 95%
    05:00 +19°C° 0.7 mm 0 mps 625 mmHg 95%
    06:00 +19°C° 0.7 mm 0 mps 625 mmHg 94%
    07:00 +19°C° 3.3 mm 0 mps 625 mmHg 94%
    08:00 +20°C° 3.3 mm 0 mps 625 mmHg 95%
    09:00 +20°C° 3.3 mm 0 mps 625 mmHg 95%
    10:00 +20°C° 3.3 mm 0 mps 625 mmHg 94%
    11:00 +20°C° 3.3 mm 0 mps 625 mmHg 94%
    12:00 +21°C° 3.3 mm 0 mps 624 mmHg 93%
    13:00 +21°C° 1 mm 0 mps 624 mmHg 94%
    14:00 +21°C° 1 mm 0 mps 623 mmHg 95%
    15:00 +21°C° 1 mm 0 mps 623 mmHg 96%
    16:00 +21°C° 0.2 mm 0 mps 623 mmHg 96%
    17:00 +21°C° 0.2 mm 0 mps 622 mmHg 96%
    18:00 +21°C° 0.2 mm 0 mps 622 mmHg 95%
    19:00 +20°C° 0.2 mm 0 mps 623 mmHg 96%
    20:00 +20°C° 0.2 mm 0 mps 623 mmHg 96%
    21:00 +20°C° 0.2 mm 0 mps 623 mmHg 97%
    22:00 +20°C° 0.4 mm 0 mps 623 mmHg 96%
    23:00 +20°C° 0.4 mm 0 mps 623 mmHg 96%

    Day after tomorrow, 27 June, Thursday

    Time Temperature Precipitation Wind Pressure Humidity
    00:00 +19°C° 0.4 mm 0 mps 623 mmHg 96%
    01:00 +19°C° 3.9 mm 0 mps 622 mmHg 96%
    02:00 +19°C° 3.9 mm 0 mps 622 mmHg 96%
    03:00 +19°C° 3.9 mm 0 mps 621 mmHg 96%
    04:00 +19°C° 7.1 mm 0 mps 622 mmHg 96%
    05:00 +19°C° 7.1 mm 0 mps 622 mmHg 96%
    06:00 +19°C° 7.1 mm 0 mps 622 mmHg 96%
    07:00 +20°C° 2.3 mm 0 mps 622 mmHg 95%
    08:00 +20°C° 2.3 mm 0 mps 623 mmHg 93%
    09:00 +23°C° 2.3 mm 1 mps 623 mmHg 91%
    10:00 +23°C° 1.5 mm 1 mps 623 mmHg 91%
    11:00 +23°C° 1.5 mm 1 mps 622 mmHg 90%
    12:00 +24°C° 1.5 mm 1 mps 622 mmHg 90%
    13:00 +24°C° 0.5 mm 1 mps 622 mmHg 89%
    14:00 +24°C° 0.5 mm 1 mps 622 mmHg 89%
    15:00 +25°C° 0.5 mm 2 mps 621 mmHg 88%
    16:00 +24°C° 0.5 mm 1 mps 621 mmHg 91%
    17:00 +23°C° 0.5 mm 1 mps 621 mmHg 94%
    18:00 +23°C° 0.5 mm 1 mps 620 mmHg 97%
    19:00 +22°C° 0.2 mm 1 mps 621 mmHg 97%
    20:00 +20°C° 0.2 mm 0 mps 621 mmHg 98%
    21:00 +20°C° 0.2 mm 0 mps 622 mmHg 98%
    22:00 +20°C° 0.8 mm 0 mps 622 mmHg 98%
    23:00 +19°C° 0.8 mm 0 mps 622 mmHg 97%

    28 June, Friday

    Time Temperature Precipitation Wind Pressure Humidity
    00:00 +19°C° 0.8 mm 0 mps 622 mmHg 96%
    01:00 +19°C° 2.3 mm 0 mps 621 mmHg 96%
    02:00 +19°C° 2.3 mm 0 mps 621 mmHg 96%
    03:00 +19°C° 2.3 mm 0 mps 621 mmHg 97%
    04:00 +19°C° 4.7 mm 0 mps 621 mmHg 97%
    05:00 +19°C° 4.7 mm 0 mps 621 mmHg 97%
    06:00 +21°C° 4.7 mm 1 mps 621 mmHg 97%
    07:00 +21°C° 5.9 mm 1 mps 622 mmHg 97%
    08:00 +22°C° 5.9 mm 1 mps 622 mmHg 97%
    09:00 +22°C° 5.9 mm 1 mps 622 mmHg 97%
    10:00 +20°C° 4.4 mm 0 mps 622 mmHg 97%
    11:00 +20°C° 4.4 mm 0 mps 622 mmHg 97%
    12:00 +20°C° 4.4 mm 0 mps 622 mmHg 97%
    13:00 +21°C° 1.4 mm 0 mps 622 mmHg 95%
    14:00 +23°C° 1.4 mm 1 mps 622 mmHg 94%
    15:00 +24°C° 1.4 mm 1 mps 621 mmHg 92%
    16:00 +23°C° 0.3 mm 1 mps 621 mmHg 93%
    17:00 +23°C° 0.3 mm 1 mps 621 mmHg 94%
    18:00 +23°C° 0.3 mm 1 mps 621 mmHg 96%
    19:00 +20°C° 0.1 mm 0 mps 621 mmHg 96%
    20:00 +20°C° 0.1 mm 0 mps 621 mmHg 97%
    21:00 +19°C° 0.1 mm 0 mps 622 mmHg 98%
    22:00 +19°C° 0.5 mm 0 mps 622 mmHg 97%
    23:00 +19°C° 0.5 mm 0 mps 622 mmHg 97%

    29 June, Saturday

    Time Temperature Precipitation Wind Pressure Humidity
    00:00 +19°C° 0.5 mm 0 mps 622 mmHg 97%
    01:00 +19°C° 0.4 mm 0 mps 622 mmHg 97%
    02:00 +19°C° 0.4 mm 0 mps 622 mmHg 96%
    03:00 +19°C° 0.4 mm 0 mps 622 mmHg 96%
    04:00 +19°C° 0.3 mm 0 mps 622 mmHg 96%
    05:00 +19°C° 0.3 mm 0 mps 622 mmHg 96%
    06:00 +19°C° 0.3 mm 0 mps 622 mmHg 96%
    07:00 +20°C° 0.9 mm 0 mps 623 mmHg 94%
    08:00 +21°C° 0.9 mm 0 mps 623 mmHg 93%
    09:00 +23°C° 0.9 mm 1 mps 623 mmHg 91%
    10:00 +23°C° 0.9 mm 1 mps 623 mmHg 92%
    11:00 +23°C° 0.9 mm 1 mps 623 mmHg 93%
    12:00 +23°C° 0.9 mm 1 mps 622 mmHg 93%
    13:00 +24°C° 0.4 mm 1 mps 622 mmHg 90%
    14:00 +25°C° 0.4 mm 1 mps 622 mmHg 86%
    15:00 +26°C° 0.4 mm 1 mps 622 mmHg 83%
    16:00 +25°C° 0.1 mm 1 mps 621 mmHg 86%
    17:00 +25°C° 0.1 mm 1 mps 621 mmHg 90%
    18:00 +24°C° 0.1 mm 1 mps 621 mmHg 93%
    19:00 +24°C° 0 mm 1 mps 622 mmHg 95%
    20:00 +21°C° 0 mm 0 mps 622 mmHg 97%
    21:00 +20°C° 0 mm 0 mps 622 mmHg 99%
    22:00 +20°C° 0.1 mm 0 mps 623 mmHg 98%
    23:00 +20°C° 0.1 mm 0 mps 623 mmHg 98%

    30 June, Sunday

    Time Temperature Precipitation Wind Pressure Humidity
    00:00 +20°C° 0.1 mm 0 mps 623 mmHg 97%
    01:00 +20°C° 0.1 mm 0 mps 622 mmHg 97%
    02:00 +20°C° 0.1 mm 0 mps 622 mmHg 96%
    03:00 +20°C° 0.1 mm 0 mps 622 mmHg 96%
    04:00 +20°C° 0.1 mm 0 mps 622 mmHg 95%
    05:00 +20°C° 0.1 mm 0 mps 622 mmHg 95%
    06:00 +20°C° 0.1 mm 0 mps 622 mmHg 94%
    07:00 +22°C° 0.1 mm 0 mps 623 mmHg 88%
    08:00 +25°C° 0.1 mm 1 mps 623 mmHg 82%
    09:00 +27°C° 0.1 mm 1 mps 624 mmHg 76%
    10:00 +27°C° 0.6 mm 2 mps 624 mmHg 77%
    11:00 +27°C° 0.6 mm 2 mps 623 mmHg 79%
    12:00 +27°C° 0.6 mm 2 mps 623 mmHg 81%
    13:00 +27°C° 1.1 mm 2 mps 622 mmHg 83%
    14:00 +27°C° 1.1 mm 2 mps 622 mmHg 84%
    15:00 +27°C° 1.1 mm 2 mps 621 mmHg 86%
    16:00 +26°C° 0.7 mm 1 mps 621 mmHg 89%
    17:00 +25°C° 0.7 mm 1 mps 621 mmHg 92%
    18:00 +25°C° 0.7 mm 1 mps 621 mmHg 95%
    19:00 +24°C° 0.3 mm 1 mps 622 mmHg 95%
    20:00 +21°C° 0.3 mm 0 mps 622 mmHg 96%
    21:00 +20°C° 0.3 mm 0 mps 622 mmHg 96%
    22:00 +20°C° 0.1 mm 0 mps 622 mmHg 96%
    23:00 +20°C° 0.1 mm 0 mps 622 mmHg 95%
    Show more